Temp
50 51 51 51 51 50 51 51 51 51 52 52 53 53 54 54 54 49 43 45 43 40 41 45 46 39 40 36 32 35 35 37 37 30 34 36 34 35 33 35 34 35 35 35 36 36 38 54 56 48 49 56 59 65
50 50 50 50 50 50 50 50 51 51 52 52 52 53 54 54 54 52 41 45 47 43 41 47 48 49 47 46 38 38 39 39 39 34 36 38 35 37 36 31 39 34 38 35 38 40 47 52 52 54 53 55 57 55
50 50 50 50 50 50 50 50 51 51 51 52 52 53 54 54 54 52 46 43 45 42 39 39 44 52 50 49 50 38 40 45 42 44 40 38 34 38 33 33 35 39 44 40 39 47 48 51 54 54 56 56 59 61
50 50 50 50 50 50 50 50 50 51 51 52 52 53 54 54 53 53 47 43 45 43 36 37 54 49 56 51 49 48 44 43 42 40 40 37 35 43 36 37 36 40 43 39 41 47 48 53 52 54 55 58 58 62
50 50 50 50 50 50 50 50 50 51 51 52 53 53 53 53 53 49 44 45 45 39 33 35 45 51 53 50 49 49 44 40 39 37 36 35 42 41 44 42 39 44 41 37 36 47 44 47 52 56 54 54 58 58
50 50 50 50 50 50 50 50 50 51 52 53 53 53 52 52 52 43 39 46 48 45 36 29 41 45 48 50 47 46 46 42 40 38 38 41 44 39 35 34 46 49 49 48 44 52 50 53 56 56 53 56 58 58
49 50 50 50 50 50 50 50 51 51 52 52 52 52 52 52 44 40 41 46 48 44 38 35 34 46 51 48 45 42 43 41 42 38 36 39 41 43 38 35 48 52 54 54 53 53 51 54 50 55 56 57 58 59
49 49 50 50 50 50 50 50 51 52 52 52 52 52 52 52 48 42 46 51 47 41 42 35 32 38 49 40 39 43 38 38 39 38 39 37 39 40 34 44 49 53 55 55 55 54 54 56 54 57 58 56 56 57
49 49 50 50 50 50 50 50 51 51 51 52 52 52 47 44 41 45 57 54 46 43 34 36 32 31 46 41 41 38 40 32 38 35 36 38 35 33 39 39 43 46 48 53 57 56 55 55 56 57 54 55 55 55
49 49 50 50 50 50 50 50 51 51 52 52 50 46 38 45 57 54 46 41 40 41 39 36 41 34 42 41 39 36 39 37 31 35 39 34 32 39 42 43 44 46 47 48 48 50 52 53 55 54 55 56 57 59
49 49 50 50 50 50 50 50 51 51 51 45 40 40 45 52 46 40 35 35 37 37 42 41 42 39 44 38 36 37 33 35 30 33 34 33 33 39 43 42 43 45 48 49 48 53 55 56 57 55 57 60 61 60
49 49 49 49 50 50 50 51 51 44 42 44 45 46 43 43 39 37 30 36 35 34 42 39 44 42 41 42 35 36 32 33 29 38 34 33 36 42 42 43 44 45 45 45 47 50 56 57 58 57 59 61 61 59
48 49 49 49 50 50 51 52 52 51 48 47 43 40 37 35 31 32 32 31 32 40 43 44 37 39 39 40 35 34 32 28 37 32 32 35 40 41 42 44 46 46 46 46 46 48 52 56 58 58 58 60 62 59
48 48 49 49 49 51 52 51 51 48 44 41 38 29 30 28 31 35 34 35 40 42 42 41 37 34 41 35 37 32 33 35 28 24 30 36 39 42 43 45 45 45 46 47 46 46 47 51 54 58 61 61 62 61
48 48 48 48 51 52 51 50 50 46 44 41 36 27 30 39 39 41 42 40 43 44 41 37 38 37 30 32 36 27 27 23 30 29 33 39 41 42 43 44 45 44 45 46 47 47 48 49 50 52 55 54 58 63
48 47 47 50 51 50 49 48 48 48 44 44 38 35 39 37 39 41 42 41 44 44 42 39 33 31 28 31 32 29 28 24 29 34 37 41 43 44 45 46 46 47 47 46 47 48 49 49 48 50 53 54 56 59
47 41 48 50 49 48 48 44 48 48 43 42 36 41 40 39 39 40 42 43 45 42 34 37 31 30 33 24 29 33 31 34 35 38 40 42 43 44 46 48 48 48 48 47 47 48 48 48 48 48 48 51 54 57
40 43 49 48 47 46 47 49 45 44 42 41 36 41 40 42 41 42 43 44 43 42 41 37 39 31 28 20 20 31 35 37 38 40 41 43 43 46 48 46 49 48 48 48 48 48 48 48 47 48 49 51 52 54
43 45 47 48 46 41 40 46 45 39 41 43 44 43 43 43 45 45 45 45 45 45 43 40 36 31 31 36 36 37 39 41 41 42 43 45 47 46 47 47 48 48 48 48 48 47 48 49 49 50 49 50 51 52
46 47 48 49 48 41 42 42 48 39 35 41 45 43 43 43 45 45 44 44 44 43 40 34 36 38 38 40 42 42 42 44 44 44 45 47 47 47 45 45 46 49 49 49 49 45 48 49 50 50 49 50 51 51
45 48 49 46 43 43 44 43 43 39 41 41 46 44 42 44 43 43 43 44 42 34 32 41 41 44 44 44 44 46 45 47 42 46 44 45 49 45 45 46 46 46 46 48 48 48 47 47 49 50 50 50 50 51
42 48 43 46 42 42 41 46 41 44 41 43 42 43 37 32 35 43 45 40 41 42 42 43 44 44 44 45 45 46 46 48 46 47 46 46 47 44 44 45 48 46 45 47 48 48 49 48 48 49 50 50 49 48
45 44 41 42 40 38 38 45 40 41 37 38 38 37 35 34 43 47 35 41 43 46 46 45 48 47 44 46 47 47 48 46 43 46 46 45 44 45 45 45 45 46 46 48 50 48 48 45 50 49 50 50 49 48
47 41 39 36 35 31 38 36 34 34 33 31 31 35 36 38 42 37 35 39 43 45 44 46 46 45 44 46 43 43 45 47 48 46 46 45 43 44 46 45 45 47 47 46 47 49 50 49 46 50 51 50 48 48
33 30 29 26 32 35 33 33 34 30 34 33 34 33 33 37 29 33 37 40 41 42 43 43 43 43 42 42 43 44 48 46 44 46 46 45 44 43 43 44 45 45 46 45 46 47 47 48 48 47 46 45 46 43
26 29 29 30 29 31 31 31 33 33 33 33 34 36 33 32 33 34 40 42 41 42 43 44 43 43 45 45 43 43 44 45 47 45 44 45 44 43 41 41 40 42 46 45 46 46 46 45 44 44 44 44 39 44
25 24 30 39 32 36 31 34 34 32 34 33 32 32 31 32 33 39 44 45 44 45 47 48 46 47 47 45 46 46 45 46 45 45 44 45 48 44 43 42 41 43 45 47 47 46 45 44 43 41 41 41 42 42
30 30 27 26 32 30 32 29 32 31 35 39 37 34 34 35 37 43 45 46 47 48 49 50 51 50 46 46 44 44 44 45 47 46 44 44 44 46 49 48 46 38 42 41 44 45 44 43 42 40 39 39 39 40
30 30 33 28 31 29 29 31 32 37 42 41 33 33 40 45 48 47 48 48 48 48 46 45 44 45 45 44 43 41 42 42 42 41 39 36 39 42 48 50 49 47 43 39 33 37 38 39 39 40 40 39 39 38
29 36 29 30 30 29 34 38 37 42 43 43 45 43 43 47 49 49 48 50 48 46 47 45 44 44 42 41 39 39 39 40 40 39 36 36 37 40 42 45 46 43 43 42 40 38 35 39 38 39 37 35 34 33
36 36 32 30 32 38 40 41 42 43 43 43 44 41 39 43 48 45 45 46 48 47 46 42 41 41 40 38 37 37 34 35 37 37 38 40 40 41 42 45 45 40 40 39 38 37 37 36 34 33 32 31 31 31
36 34 32 30 32 39 41 38 36 38 40 39 39 41 42 39 37 38 42 44 43 41 37 40 40 38 41 39 37 35 33 33 33 34 35 34 35 37 40 43 42 41 39 37 36 34 34 33 32 32 31 31 31 30
34 37 35 33 28 30 37 36 33 33 33 28 36 39 39 37 32 37 41 42 41 40 39 39 40 40 39 38 36 34 33 33 30 29 29 28 28 30 36 40 40 40 37 35 34 32 33 32 32 31 30 29 28 27
MSLP
1026.00 1025.20 1024.36 1023.53 1022.87 1022.10 1021.34 1020.50 1019.74 1019.11 1018.42 1017.83 1017.17 1016.52 1016.07 1015.60 1015.18 1015.21 1014.86 1014.45 1014.60 1013.78 1012.20 1011.41 1010.93 1010.96 1010.61 1010.43 1010.31 1009.45 1008.67 1007.93 1007.52 1007.10 1006.30 1005.59 1005.81 1006.20 1006.29 1006.04 1005.53 1004.21 1002.84 1001.42 1000.09 998.36 998.32 997.07 995.15 995.91 998.61 996.26 994.36 992.22
1025.76 1024.91 1024.06 1023.20 1022.46 1021.72 1020.94 1020.06 1019.32 1018.60 1017.86 1017.24 1016.57 1016.03 1015.50 1015.07 1014.71 1014.59 1014.69 1013.89 1013.78 1013.65 1011.85 1010.72 1010.06 1009.35 1009.42 1009.22 1009.68 1009.31 1009.24 1008.79 1008.43 1008.23 1007.20 1006.10 1005.88 1005.77 1005.79 1005.84 1005.51 1005.44 1004.72 1003.70 1002.48 1001.03 1000.79 1000.03 999.91 1000.03 999.15 997.45 995.18 994.47
1025.46 1024.64 1023.78 1022.89 1022.06 1021.29 1020.52 1019.66 1018.83 1018.03 1017.25 1016.58 1015.95 1015.37 1014.85 1014.47 1014.22 1014.23 1014.08 1013.82 1013.63 1012.83 1011.37 1010.29 1008.98 1007.76 1007.82 1008.15 1008.21 1008.95 1008.52 1008.04 1008.01 1008.16 1007.63 1006.69 1006.21 1005.77 1005.52 1006.45 1004.41 1005.58 1005.26 1003.98 1002.65 1001.15 1000.81 1000.59 1000.52 1000.08 998.63 997.39 995.95 994.46
1025.20 1024.33 1023.44 1022.58 1021.68 1020.87 1020.03 1019.19 1018.25 1017.39 1016.60 1015.97 1015.36 1014.74 1014.14 1013.74 1013.58 1013.61 1013.76 1013.39 1013.56 1012.90 1012.24 1009.81 1008.21 1007.46 1006.59 1007.09 1007.53 1007.69 1007.75 1007.78 1007.83 1007.49 1006.91 1006.34 1006.34 1006.23 1005.27 1004.67 1004.82 1005.55 1005.10 1004.30 1002.96 1001.77 1000.14 999.83 1000.41 999.61 998.41 997.26 995.33 994.30
1024.87 1024.07 1023.10 1022.22 1021.28 1020.45 1019.58 1018.65 1017.67 1016.76 1015.99 1015.39 1014.72 1014.19 1013.72 1013.32 1013.14 1013.12 1013.21 1012.72 1012.74 1013.20 1012.42 1010.42 1008.58 1006.85 1006.25 1006.49 1006.93 1007.13 1007.44 1007.78 1008.03 1007.77 1007.23 1006.66 1005.47 1004.94 1004.51 1005.14 1005.20 1004.02 1003.92 1003.86 1003.71 1002.23 1002.08 1000.68 1000.02 999.38 998.73 997.30 996.35 996.01
1024.49 1023.72 1022.78 1021.86 1020.91 1020.00 1019.13 1018.13 1017.06 1016.13 1015.31 1014.75 1014.18 1013.70 1013.35 1012.98 1012.87 1013.16 1012.84 1012.09 1011.71 1012.13 1012.41 1011.13 1008.81 1007.17 1006.51 1006.34 1006.58 1006.79 1006.77 1007.15 1007.66 1007.31 1007.08 1006.10 1004.89 1004.72 1004.41 1004.19 1003.72 1003.12 1002.29 1002.48 1002.82 1002.04 1001.83 1000.55 999.79 999.44 998.98 998.09 997.12 997.01
1024.12 1023.30 1022.41 1021.46 1020.53 1019.61 1018.65 1017.66 1016.48 1015.40 1014.52 1013.94 1013.48 1013.00 1012.86 1012.62 1012.96 1012.96 1012.24 1011.50 1011.45 1012.07 1012.33 1011.25 1009.65 1007.20 1006.21 1006.10 1006.13 1006.14 1006.16 1006.24 1006.40 1006.74 1006.90 1006.46 1005.49 1005.27 1005.27 1004.44 1003.11 1002.27 1002.25 1001.62 1001.78 1002.41 1000.70 999.74 999.53 999.07 998.68 998.24 997.73 997.49
1023.72 1022.86 1021.97 1021.02 1020.10 1019.23 1018.30 1017.26 1016.06 1014.87 1013.65 1012.92 1012.48 1011.98 1012.03 1012.03 1012.15 1012.03 1010.80 1010.52 1011.26 1011.94 1011.94 1011.55 1009.71 1008.19 1006.80 1006.84 1006.82 1006.64 1006.79 1006.59 1006.32 1006.22 1005.55 1005.16 1005.48 1004.85 1003.66 1002.51 1001.18 1001.10 1001.49 1001.96 1001.68 1001.26 1000.58 999.84 999.06 998.30 998.48 998.25 998.56 997.94
1023.25 1022.45 1021.58 1020.60 1019.68 1018.82 1017.91 1016.94 1015.84 1014.59 1013.14 1012.17 1011.43 1011.18 1011.65 1011.80 1011.81 1010.96 1010.28 1010.51 1011.01 1011.78 1011.47 1011.04 1010.24 1009.40 1007.94 1007.53 1007.36 1007.33 1007.16 1007.42 1006.71 1006.66 1006.21 1005.66 1005.01 1004.03 1003.64 1003.88 1003.10 1003.03 1003.14 1002.19 1001.25 1000.76 1000.34 1000.11 999.13 998.30 998.36 999.21 999.39 998.33
1022.72 1021.95 1021.13 1020.20 1019.23 1018.37 1017.49 1016.58 1015.72 1014.50 1012.90 1011.64 1011.33 1011.71 1011.95 1011.11 1010.46 1010.59 1010.79 1011.12 1011.36 1011.41 1011.38 1010.84 1010.01 1009.47 1008.92 1008.02 1007.95 1008.33 1008.17 1007.74 1007.42 1007.08 1006.43 1006.30 1006.65 1006.85 1006.26 1005.56 1004.57 1004.04 1002.97 1001.74 1000.11 1000.66 1001.31 999.82 998.47 998.72 999.50 999.36 998.67 998.19
1022.18 1021.40 1020.58 1019.78 1018.79 1017.91 1017.11 1016.31 1015.47 1014.54 1013.05 1013.01 1013.28 1013.06 1011.86 1010.55 1010.62 1010.80 1011.32 1011.55 1011.45 1011.42 1010.92 1009.99 1009.39 1009.09 1008.69 1008.84 1008.82 1009.23 1009.07 1008.59 1008.04 1007.36 1006.95 1006.58 1006.66 1006.63 1006.25 1005.84 1005.65 1004.68 1003.37 1002.09 1001.58 999.99 998.36 998.23 998.12 998.36 998.43 998.17 997.82 997.32
1021.59 1020.85 1020.01 1019.24 1018.38 1017.46 1016.63 1015.95 1015.54 1015.22 1014.75 1014.26 1014.37 1013.87 1012.97 1011.89 1011.81 1012.21 1012.26 1011.91 1011.81 1011.48 1010.23 1009.26 1008.51 1008.71 1009.10 1009.29 1009.63 1009.74 1009.51 1009.15 1008.56 1008.14 1007.57 1006.91 1006.83 1006.24 1006.57 1006.05 1005.13 1003.73 1002.63 1001.90 1001.59 1001.02 999.55 998.21 997.87 998.04 997.84 997.48 996.99 996.64
1021.07 1020.30 1019.42 1018.70 1017.88 1017.00 1016.11 1015.53 1015.12 1014.76 1013.93 1013.86 1014.00 1013.82 1013.54 1013.57 1013.56 1013.99 1013.55 1012.68 1011.79 1010.79 1009.47 1008.74 1008.67 1009.03 1009.47 1009.76 1010.06 1010.10 1009.77 1009.60 1009.12 1008.54 1008.04 1007.27 1006.67 1006.26 1005.89 1005.39 1004.21 1003.34 1002.75 1002.40 1001.48 1000.16 998.89 998.79 998.69 997.78 996.89 996.57 995.71 996.21
1020.47 1019.80 1018.84 1018.09 1017.33 1016.47 1015.60 1014.80 1014.50 1014.11 1013.89 1013.77 1013.86 1014.04 1014.13 1013.90 1013.83 1013.43 1012.84 1011.96 1010.68 1009.93 1009.06 1008.62 1008.87 1009.41 1009.58 1010.08 1010.15 1010.22 1009.97 1009.76 1009.52 1009.12 1008.33 1007.45 1006.62 1005.78 1005.15 1004.11 1003.48 1002.82 1001.90 1002.04 1001.58 1000.45 1000.00 999.49 998.22 997.34 997.00 996.71 996.56 996.28
1019.87 1019.16 1017.98 1017.30 1016.61 1015.78 1014.97 1014.04 1013.41 1013.47 1013.52 1013.44 1013.66 1013.95 1013.44 1012.86 1012.37 1011.86 1011.27 1011.01 1009.84 1008.95 1008.77 1008.90 1009.22 1009.59 1010.35 1010.63 1010.82 1010.95 1010.62 1010.46 1010.17 1009.77 1008.87 1007.52 1006.39 1005.49 1004.53 1003.74 1003.04 1002.46 1002.04 1001.01 1000.22 1000.10 999.91 999.38 998.86 998.10 997.39 996.79 996.19 996.00
1019.45 1018.54 1017.05 1016.48 1016.00 1015.37 1014.40 1013.52 1012.58 1012.71 1012.70 1012.74 1012.81 1012.78 1012.46 1012.62 1011.95 1011.30 1010.57 1010.24 1009.04 1008.94 1008.73 1009.18 1009.88 1010.51 1011.06 1011.41 1011.54 1011.78 1011.56 1011.17 1010.31 1009.07 1007.63 1006.77 1006.23 1005.09 1004.47 1003.62 1002.98 1002.23 1001.49 1001.04 1000.81 1000.20 999.23 998.82 998.53 997.94 997.06 996.45 996.26 996.49
1019.21 1018.43 1016.94 1016.50 1016.03 1015.03 1013.74 1013.57 1012.63 1012.31 1012.08 1012.06 1011.97 1011.54 1011.56 1011.55 1011.15 1010.51 1009.92 1009.44 1008.69 1008.99 1009.42 1009.68 1010.40 1010.80 1011.16 1011.64 1011.84 1011.66 1011.21 1009.99 1008.73 1007.80 1006.80 1006.00 1005.58 1004.78 1004.14 1003.38 1002.80 1002.05 1001.35 1000.54 999.91 999.20 998.60 998.13 997.70 997.16 996.53 996.18 995.78 995.54
1018.62 1017.83 1017.31 1016.69 1016.43 1015.13 1013.79 1012.78 1012.33 1011.76 1011.63 1011.27 1011.27 1010.79 1010.59 1010.32 1010.00 1009.48 1009.09 1008.56 1008.74 1008.89 1009.08 1009.31 1009.64 1010.71 1011.04 1011.10 1011.12 1010.07 1009.39 1008.54 1007.80 1007.08 1006.19 1005.38 1005.01 1004.13 1003.58 1003.32 1002.81 1001.82 1000.94 1000.22 999.38 998.14 997.03 996.53 996.31 996.07 995.55 994.89 994.64 994.60
1018.06 1017.58 1016.76 1016.31 1016.82 1016.42 1014.88 1012.58 1011.49 1011.39 1010.83 1010.54 1010.21 1009.90 1009.77 1009.40 1008.78 1008.36 1008.21 1007.91 1008.06 1007.90 1008.42 1008.96 1009.46 1009.88 1009.83 1009.35 1009.00 1008.81 1008.49 1008.16 1007.51 1006.51 1005.50 1004.70 1004.46 1004.20 1003.78 1003.26 1002.57 1001.65 1000.86 1000.21 999.48 998.45 997.36 996.75 996.30 995.76 995.29 994.57 994.45 994.15
1017.27 1016.45 1015.96 1015.51 1015.88 1015.56 1014.36 1012.33 1010.77 1010.78 1010.46 1009.73 1009.37 1009.33 1009.15 1008.97 1008.20 1007.91 1007.72 1007.78 1007.74 1007.79 1008.49 1008.71 1008.68 1008.35 1008.18 1008.07 1007.87 1007.66 1007.11 1007.02 1006.84 1006.20 1005.70 1004.82 1004.23 1003.88 1003.58 1003.35 1002.86 1002.03 1001.07 1000.26 999.63 998.80 997.76 996.92 996.21 995.87 995.42 994.89 994.66 994.02
1016.80 1015.63 1015.05 1014.86 1014.93 1014.66 1013.43 1011.86 1010.78 1009.90 1009.28 1009.04 1008.42 1008.52 1008.59 1008.15 1008.08 1007.91 1007.72 1007.32 1007.85 1007.79 1008.18 1007.63 1007.35 1007.11 1007.03 1006.95 1006.59 1006.52 1006.13 1005.75 1006.06 1006.07 1006.06 1005.43 1004.65 1004.13 1003.67 1003.11 1002.77 1002.42 1001.84 1001.06 1000.37 999.52 998.69 998.02 997.10 996.05 995.41 995.53 995.26 994.85
1016.35 1015.77 1015.48 1014.28 1013.99 1013.25 1012.34 1010.65 1010.06 1009.19 1009.06 1008.37 1008.23 1008.06 1008.30 1008.07 1007.73 1007.55 1007.13 1007.38 1007.15 1006.94 1006.74 1006.67 1006.69 1006.72 1006.86 1006.69 1006.42 1006.30 1006.08 1005.96 1005.75 1005.41 1005.01 1004.78 1005.03 1004.51 1004.16 1003.73 1003.05 1002.74 1002.17 1001.56 1001.16 1000.56 999.93 999.12 998.15 997.15 996.45 996.45 996.28 996.20
1016.12 1015.46 1015.17 1014.27 1013.26 1011.84 1010.41 1009.34 1009.60 1009.12 1008.97 1008.16 1007.65 1007.88 1007.77 1007.39 1006.93 1006.47 1006.89 1006.71 1006.30 1005.58 1005.51 1005.73 1005.78 1005.90 1006.26 1006.18 1005.99 1006.07 1005.91 1005.82 1005.45 1005.16 1005.03 1004.93 1004.90 1004.61 1004.36 1003.93 1003.56 1003.30 1002.86 1002.21 1001.68 1001.23 1000.74 1000.17 999.54 998.84 998.35 997.75 997.24 997.00
1015.21 1015.33 1014.23 1013.34 1012.56 1011.44 1010.31 1009.87 1009.02 1008.77 1008.10 1007.95 1008.00 1007.86 1007.43 1007.02 1006.52 1006.55 1006.51 1006.05 1005.68 1005.25 1005.20 1005.30 1005.63 1005.75 1006.03 1006.04 1005.93 1006.00 1005.68 1005.42 1005.18 1004.77 1004.87 1004.72 1004.89 1004.89 1004.55 1004.35 1004.01 1003.64 1003.23 1002.77 1002.21 1001.80 1001.44 1001.24 1000.66 1000.33 1000.01 999.95 999.83 999.68
1015.54 1014.31 1013.79 1012.82 1011.74 1011.20 1010.45 1009.60 1008.98 1008.76 1008.26 1007.93 1007.86 1007.50 1006.99 1006.68 1006.74 1006.37 1005.76 1005.25 1005.12 1005.12 1004.99 1005.05 1005.11 1005.48 1005.94 1005.88 1005.85 1005.72 1005.30 1005.13 1005.24 1005.18 1004.95 1004.78 1004.86 1004.92 1004.82 1004.65 1004.46 1004.07 1003.58 1003.23 1002.83 1002.50 1002.41 1002.20 1001.84 1001.67 1001.64 1001.54 1001.37 1001.27
1014.85 1013.01 1012.50 1011.61 1011.00 1010.64 1009.88 1009.32 1008.68 1008.23 1007.76 1007.72 1007.26 1006.55 1006.30 1006.36 1006.24 1005.65 1004.80 1004.37 1004.33 1004.47 1004.54 1004.64 1004.81 1005.10 1005.42 1005.61 1005.69 1005.64 1005.60 1005.24 1005.07 1005.31 1005.43 1005.15 1005.03 1005.00 1005.24 1005.24 1005.10 1004.61 1004.13 1003.79 1003.47 1003.29 1003.28 1003.28 1003.25 1003.08 1003.11 1003.06 1002.86 1002.46
1013.46 1012.17 1011.15 1010.24 1009.71 1009.39 1009.20 1008.71 1008.26 1008.10 1007.70 1006.96 1006.31 1006.14 1006.10 1005.82 1005.24 1004.52 1003.73 1003.50 1003.57 1003.77 1003.89 1004.13 1004.29 1004.54 1004.88 1005.25 1005.37 1005.48 1005.39 1005.25 1005.42 1005.45 1005.56 1005.24 1005.28 1005.21 1005.24 1005.10 1005.03 1005.11 1004.71 1004.43 1004.22 1004.00 1004.07 1004.24 1004.38 1004.40 1004.43 1004.32 1004.23 1004.09
1011.51 1010.84 1010.33 1009.67 1009.55 1009.11 1009.09 1008.74 1008.43 1008.10 1007.08 1006.15 1005.85 1005.54 1005.12 1004.53 1004.17 1003.69 1003.32 1003.22 1003.20 1003.39 1003.59 1003.57 1003.77 1004.06 1004.44 1004.92 1005.23 1005.30 1005.52 1005.47 1005.68 1005.82 1005.68 1005.73 1005.63 1005.28 1005.00 1004.89 1004.97 1005.13 1005.29 1005.24 1005.12 1005.07 1005.11 1005.11 1005.23 1005.33 1005.28 1005.39 1005.44 1005.44
1010.04 1009.53 1009.53 1009.32 1009.14 1008.75 1008.25 1007.94 1007.37 1006.50 1005.72 1005.26 1005.34 1004.91 1003.99 1003.30 1002.95 1002.91 1002.85 1002.73 1002.70 1003.11 1003.54 1003.83 1004.04 1004.22 1004.94 1005.40 1005.61 1005.64 1005.71 1005.97 1006.36 1006.72 1006.90 1007.09 1006.76 1006.32 1005.80 1005.56 1005.32 1005.67 1005.96 1006.24 1006.49 1006.26 1006.32 1006.39 1006.39 1006.34 1006.36 1006.55 1006.92 1007.13
1008.70 1008.36 1008.46 1008.20 1007.95 1007.25 1006.45 1006.31 1005.51 1004.92 1004.82 1004.77 1004.75 1004.83 1004.33 1003.85 1003.08 1002.75 1002.55 1002.37 1003.42 1003.95 1003.53 1003.60 1003.86 1004.39 1005.11 1005.56 1006.25 1006.55 1006.48 1006.43 1006.57 1007.05 1007.38 1007.44 1007.55 1007.33 1006.83 1006.45 1006.26 1006.31 1006.28 1006.51 1006.98 1007.16 1007.03 1007.03 1007.22 1007.32 1007.48 1007.63 1007.79 1007.95
1006.87 1007.00 1007.05 1006.77 1006.07 1005.16 1004.99 1004.86 1004.50 1004.42 1004.35 1004.20 1003.99 1004.33 1004.49 1004.22 1003.08 1003.87 1003.38 1003.21 1003.33 1003.95 1004.58 1004.64 1004.76 1005.05 1005.37 1005.93 1006.39 1006.90 1007.62 1007.74 1007.54 1007.57 1007.65 1007.65 1007.60 1007.22 1006.74 1006.57 1006.75 1007.07 1007.11 1007.27 1007.49 1007.76 1008.07 1008.28 1008.43 1008.62 1008.78 1008.90 1009.01 1009.12
1005.61 1005.54 1005.53 1005.48 1005.02 1004.17 1004.16 1004.23 1004.07 1003.88 1003.59 1003.49 1003.43 1003.37 1003.51 1003.46 1003.97 1004.73 1004.78 1004.22 1005.06 1005.01 1005.20 1005.22 1005.42 1006.12 1006.34 1006.74 1007.82 1007.90 1007.85 1008.31 1008.33 1008.32 1008.15 1008.15 1007.90 1007.65 1007.26 1006.90 1007.14 1007.29 1007.52 1007.91 1008.25 1008.55 1008.88 1009.15 1009.34 1009.56 1009.80 1009.94 1010.03 1010.26
1004.14 1004.14 1004.17 1004.28 1004.05 1003.92 1003.57 1003.72 1003.65 1003.63 1003.55 1003.41 1003.21 1002.88 1002.90 1003.48 1004.47 1005.17 1005.32 1005.59 1005.16 1005.63 1005.86 1005.82 1006.17 1006.84 1007.36 1007.60 1007.72 1008.38 1008.73 1008.98 1008.96 1008.95 1008.77 1008.66 1008.44 1008.11 1007.80 1007.74 1007.88 1008.14 1008.38 1008.66 1009.00 1009.30 1009.64 1009.95 1010.18 1010.36 1010.57 1010.86 1011.12 1011.37
Wind_Speed
21 21 22 22 23 23 24 23 22 23 23 22 22 21 19 17 12 4 5 4 3 4 10 7 4 9 6 3 3 5 6 3 4 4 2 3 3 4 3 3 5 5 6 3 5 1 5 25 8 11 10 16 18 8
22 22 23 23 24 23 23 24 22 22 21 22 23 21 19 18 12 6 3 2 2 5 8 6 14 18 14 15 3 2 2 3 2 2 3 3 2 3 4 2 3 3 5 4 5 1 6 6 6 4 9 13 18 18
24 23 23 24 24 24 24 24 23 23 23 23 22 21 19 17 13 5 4 3 3 3 6 3 6 7 6 12 7 3 3 3 2 7 3 2 3 0 2 3 4 3 7 4 9 2 16 9 9 12 16 18 19 20
23 24 24 24 25 25 25 25 24 24 23 23 21 19 16 13 9 7 4 2 2 3 4 8 5 9 7 7 9 9 4 3 2 1 3 3 3 7 5 2 2 3 4 6 7 9 18 2 15 18 21 21 23 25
22 24 24 25 26 26 26 26 25 25 23 21 20 18 16 14 8 5 4 4 4 3 4 6 12 6 4 7 10 9 6 4 1 3 1 3 3 1 1 4 6 6 4 3 4 12 6 14 13 15 18 24 24 24
22 24 24 26 26 27 26 27 27 25 24 21 21 19 14 11 5 2 4 3 4 4 1 5 5 5 3 6 8 9 9 5 3 3 3 4 3 3 2 2 6 8 10 10 5 7 13 16 12 9 12 19 22 21
23 23 24 25 27 27 28 28 29 27 26 22 17 15 10 6 2 3 5 4 1 3 0 5 6 6 3 2 3 3 2 4 4 3 3 3 4 2 4 4 4 7 6 6 7 12 14 7 7 10 11 15 20 20
23 24 24 25 26 26 27 28 30 29 29 26 18 13 9 5 3 5 5 8 5 2 1 3 7 6 6 4 4 2 3 3 3 3 4 2 2 1 3 6 7 6 7 8 8 8 12 15 9 9 9 12 18 18
23 24 24 25 25 26 27 28 28 29 31 29 18 3 2 3 1 4 5 6 1 3 2 2 3 4 5 3 2 4 2 3 3 1 3 4 4 4 9 13 16 15 13 11 6 11 10 11 11 6 8 8 12 15
23 24 24 25 25 26 26 27 26 28 31 21 5 3 4 4 6 6 3 2 3 2 2 3 2 4 3 2 3 3 3 3 3 2 3 3 3 4 12 14 13 16 16 15 13 2 10 8 7 6 7 8 8 10
23 24 24 25 26 25 25 25 24 25 9 5 5 3 5 13 2 3 2 2 3 3 3 4 4 7 3 2 2 3 3 3 4 4 4 2 2 8 15 16 13 14 13 13 13 14 6 6 6 6 8 8 6 6
23 24 25 24 26 25 23 22 21 6 2 3 5 4 4 4 4 5 3 4 3 4 4 4 7 0 2 3 3 3 3 3 3 6 4 3 4 13 14 16 15 14 14 15 14 17 7 7 7 9 8 6 5 3
22 25 26 25 25 24 20 21 20 17 11 1 1 3 4 4 8 4 4 5 3 4 5 6 4 2 1 2 1 1 3 3 5 2 3 3 6 12 12 11 11 12 10 12 14 14 14 11 12 13 10 5 7 5
21 25 27 25 24 18 22 24 21 11 3 1 2 5 4 3 3 5 5 5 7 5 6 4 1 2 1 2 1 4 2 2 5 4 3 5 13 14 16 12 11 12 11 12 14 11 12 13 11 9 14 9 8 7
20 25 29 21 14 24 26 27 24 2 2 2 4 3 4 5 5 5 7 3 5 4 3 4 3 3 3 3 4 5 7 4 3 3 3 8 15 13 12 11 11 12 11 12 13 11 12 10 11 8 5 4 4 8
20 22 6 12 22 27 29 19 3 3 2 3 3 1 4 1 6 4 4 4 4 4 2 4 3 4 4 2 5 4 6 3 5 4 6 7 11 14 12 9 10 10 11 10 9 11 11 11 11 10 7 6 5 4
14 6 11 21 26 29 23 4 2 4 4 3 4 4 4 4 6 5 3 5 2 4 1 3 3 5 1 3 2 3 4 6 6 7 7 10 10 11 10 9 9 10 11 11 11 11 13 12 10 9 11 8 8 7
5 6 21 26 19 12 3 3 3 2 5 4 1 5 3 4 4 4 4 3 2 1 2 3 3 3 3 4 5 5 5 6 6 8 8 10 7 8 6 7 9 10 11 11 13 12 10 7 9 9 10 8 6 8
11 13 25 27 10 5 4 5 3 3 6 3 4 3 3 4 5 4 3 3 3 3 3 2 2 3 4 5 4 3 3 3 6 6 5 7 3 4 5 5 7 11 11 12 12 11 8 5 2 3 4 3 3 4
22 22 22 22 6 3 5 6 1 3 4 5 2 4 3 4 4 3 2 2 2 2 1 1 5 4 4 2 4 4 1 2 3 7 8 10 5 3 4 3 3 7 10 12 10 10 10 9 8 6 4 3 2 4
8 3 8 1 3 5 4 4 5 5 4 3 4 3 4 2 3 3 3 2 2 3 2 4 4 2 4 3 2 1 1 1 3 3 3 6 8 3 4 5 4 3 4 7 9 11 12 10 10 8 6 7 6 6
4 6 3 4 4 5 5 6 5 3 1 4 3 3 2 2 4 4 2 2 4 5 5 3 2 3 3 3 2 2 4 5 2 1 6 4 5 5 5 5 7 7 6 5 5 7 9 9 9 10 9 8 9 11
7 3 4 5 4 4 8 1 3 4 4 4 2 2 3 2 4 1 0 4 5 4 5 3 3 4 5 3 2 2 3 4 2 1 3 2 1 3 4 5 5 7 8 8 5 4 6 10 11 7 9 10 10 11
7 4 5 5 6 6 3 4 3 2 2 1 3 4 4 4 1 1 5 5 4 2 2 3 2 3 1 1 1 2 4 2 4 4 1 2 2 3 4 3 4 5 6 5 4 6 7 7 11 12 11 9 10 10
3 8 4 7 5 4 4 4 4 1 5 4 5 4 3 2 1 3 4 4 2 3 3 3 3 3 4 2 1 3 4 2 2 3 4 3 2 2 4 4 4 4 5 5 6 6 6 7 7 9 12 12 11 13
7 6 9 7 4 5 6 4 4 6 4 4 6 4 2 3 4 5 4 3 2 3 4 5 4 3 2 3 3 1 3 3 1 2 4 4 4 3 3 3 3 5 6 4 4 6 7 7 9 11 10 11 10 12
7 7 5 5 3 3 3 3 3 0 4 6 4 4 3 4 5 4 3 2 3 2 4 4 5 4 4 3 2 2 2 5 3 1 2 4 4 4 2 2 3 2 4 5 6 6 6 6 7 8 10 10 11 10
8 4 7 5 4 3 4 2 3 4 5 4 2 4 6 8 5 3 4 3 5 3 2 1 1 3 3 4 4 4 5 4 6 4 4 4 4 4 6 5 4 8 7 7 7 8 8 7 8 8 11 11 9 9
5 4 4 4 4 4 6 7 6 5 4 0 0 3 4 3 3 3 2 2 3 5 4 3 0 4 8 5 5 4 5 4 7 7 7 5 5 5 6 7 4 7 7 9 10 10 12 9 8 9 11 9 8 8
5 6 4 4 5 8 6 8 5 5 4 7 6 5 9 10 5 3 3 4 4 5 3 3 4 6 7 8 6 5 4 4 5 5 4 2 1 3 4 5 6 4 5 7 7 7 8 8 8 8 9 7 6 7
4 7 4 5 5 5 9 7 6 7 6 6 5 5 7 7 2 5 8 5 4 3 4 5 7 5 5 5 6 7 4 4 6 7 5 3 4 4 3 4 4 4 5 7 7 8 8 7 6 8 9 9 10 9
6 8 5 5 6 6 3 4 5 5 4 3 3 5 5 2 3 2 6 4 5 7 6 7 9 7 7 8 7 6 9 4 4 4 5 3 3 4 4 4 6 6 8 8 7 7 8 7 6 6 7 8 9 9
6 6 6 3 2 2 5 4 2 2 2 2 4 3 4 5 4 2 2 5 3 7 6 7 7 6 7 7 8 7 6 5 6 5 7 7 6 6 5 5 6 7 8 8 7 7 8 8 6 8 9 9 9 8
Wind_Direction
333 331 330 330 328 329 327 329 334 333 332 333 328 327 327 320 321 330 262 215 192 245 278 250 158 276 283 213 235 296 339 347 344 350 220 182 157 161 167 224 282 312 305 4 324 195 62 348 358 53 309 310 345 272
332 332 330 329 327 326 326 324 327 326 324 330 323 325 323 319 310 329 262 278 225 243 264 268 266 257 232 226 174 264 288 277 224 340 325 299 185 164 151 242 150 208 7 316 28 296 352 322 64 359 310 335 3 350
330 330 329 328 326 325 326 325 325 321 319 325 321 319 317 312 308 296 276 255 283 263 294 340 265 289 197 205 179 192 257 228 203 198 247 255 54 222 29 211 35 340 9 299 338 215 338 301 354 339 357 355 351 357
327 327 328 327 326 325 326 325 323 320 318 329 324 324 328 320 308 295 261 238 269 274 288 277 299 303 274 156 186 205 234 330 275 273 250 256 188 187 195 142 28 229 298 331 280 287 328 134 359 344 346 347 1 358
326 326 327 325 325 325 326 324 320 319 319 326 331 333 332 333 317 291 220 235 198 154 263 283 310 270 243 176 197 215 221 217 329 309 315 245 278 44 230 171 194 170 178 74 282 290 247 282 322 340 344 354 356 350
324 325 326 326 325 325 326 323 319 318 319 325 331 331 328 327 335 30 350 298 190 157 350 309 292 279 263 218 217 226 231 210 194 179 244 270 276 74 0 279 238 196 175 170 250 269 256 278 304 327 333 352 347 341
321 323 324 326 326 326 326 323 318 318 320 323 321 316 309 314 109 172 203 240 133 71 321 297 305 270 279 2 321 347 339 213 167 191 208 204 266 168 222 197 273 300 285 225 195 265 295 295 294 323 342 344 337 325
318 320 322 324 325 327 326 323 319 321 322 323 318 297 281 259 247 303 257 236 143 135 127 276 270 331 360 329 319 30 334 349 339 199 316 244 274 181 297 298 330 290 246 252 193 219 265 287 303 311 339 352 327 326
314 317 321 323 325 327 326 323 320 323 321 322 325 357 81 68 251 240 150 114 122 143 244 235 252 302 325 284 310 342 5 343 281 131 268 70 329 316 3 359 354 347 330 290 253 228 219 256 279 312 342 316 302 317
312 315 318 321 324 327 326 323 323 325 321 317 41 28 338 229 291 102 28 32 3 292 272 268 13 263 275 305 346 347 343 332 329 205 265 154 120 311 355 336 331 325 317 334 341 250 217 238 275 271 246 254 269 311
311 313 317 319 321 325 323 321 326 330 347 14 6 312 285 301 59 28 331 63 315 331 261 251 245 314 3 332 358 19 341 322 334 322 338 336 96 352 340 328 319 310 323 337 338 292 271 225 280 270 262 241 272 296
310 313 315 318 318 320 319 319 330 342 276 264 304 287 300 355 25 35 321 335 28 267 281 257 306 76 62 50 39 1 342 338 295 347 324 313 324 338 331 326 310 315 323 337 337 335 247 228 250 262 260 253 224 236
310 312 313 316 318 314 316 321 327 315 297 147 200 300 52 319 39 32 315 293 272 246 256 301 314 130 105 70 81 330 353 284 317 326 316 264 295 312 310 303 309 305 314 320 320 329 345 310 256 247 257 272 304 274
312 312 311 314 309 308 326 324 326 335 298 209 115 328 127 305 229 210 218 230 252 242 294 312 3 105 77 37 6 336 291 7 355 342 303 300 305 309 314 302 301 308 319 319 318 311 311 304 304 315 237 227 256 251
315 312 305 301 306 335 324 321 318 236 172 247 94 255 233 232 252 249 238 260 266 261 336 9 22 70 15 48 10 2 4 10 338 290 271 296 300 308 302 302 300 293 299 325 321 303 287 283 292 288 288 322 283 263
320 313 261 326 335 324 317 318 295 157 253 208 201 255 255 18 282 300 289 280 274 312 18 46 40 42 356 89 16 15 342 298 268 235 251 283 295 294 314 302 308 308 304 289 296 291 291 274 271 272 264 249 226 165
320 241 289 324 322 317 309 263 265 230 207 227 261 214 202 231 233 238 234 260 288 37 296 89 49 222 33 48 304 201 217 225 238 274 278 281 281 291 297 294 308 317 312 310 305 292 277 261 251 261 257 228 211 206
240 280 307 307 325 309 278 242 248 219 244 248 166 250 231 224 235 271 247 248 60 300 129 211 139 53 198 183 264 238 240 261 263 264 274 281 293 297 318 321 330 329 324 323 318 324 305 260 252 248 242 242 223 207
280 291 292 299 297 303 298 278 151 232 236 239 246 252 225 249 249 241 234 255 215 202 115 65 164 203 232 213 227 309 300 312 298 300 294 295 303 317 318 330 335 344 342 344 339 339 334 330 352 307 280 220 192 206
291 287 287 287 219 232 266 266 175 191 244 233 226 257 211 228 247 249 252 232 207 86 62 200 217 223 204 234 188 208 174 299 326 326 351 324 325 276 305 299 319 355 358 349 349 347 346 358 3 353 348 16 68 45
295 281 309 287 224 221 259 259 258 211 223 206 224 185 248 306 291 259 243 190 89 186 234 227 237 190 192 230 210 323 84 229 238 181 262 328 321 307 305 314 326 320 351 350 1 354 4 4 350 345 33 59 45 48
255 305 301 247 235 230 239 227 219 263 324 236 270 186 223 253 266 254 220 134 210 220 194 191 219 159 175 208 227 215 245 302 299 195 265 55 347 356 349 338 4 359 347 332 354 4 359 353 354 359 12 46 56 52
289 239 214 251 260 239 253 67 209 211 220 253 53 177 268 250 223 91 241 225 243 224 195 157 170 144 158 199 123 300 288 285 354 243 343 34 309 343 359 5 1 6 354 354 358 355 8 2 14 24 45 38 40 37
235 245 243 236 207 258 296 260 232 244 274 35 144 226 248 225 251 76 243 224 239 223 157 170 157 120 42 318 52 295 288 252 300 2 289 122 31 328 8 9 4 2 350 321 357 19 20 31 29 25 36 49 60 57
203 246 169 253 271 255 230 259 240 137 234 213 195 243 263 85 152 243 246 261 209 214 199 176 127 124 165 215 222 268 314 215 271 311 329 144 167 343 358 3 3 343 338 359 5 22 28 33 45 54 42 32 49 52
219 243 192 211 237 191 221 222 221 227 208 198 236 222 129 155 184 233 234 217 196 171 181 185 176 143 168 200 176 189 289 312 104 52 356 23 27 108 101 66 14 333 347 351 23 37 34 40 44 52 50 46 36 58
235 251 239 234 222 238 322 333 353 326 237 226 212 179 139 211 233 241 246 312 146 158 168 165 165 140 170 170 186 73 60 57 46 128 189 69 35 42 31 105 93 277 336 14 26 44 58 54 48 60 63 53 46 51
226 248 206 224 222 188 221 214 159 228 236 239 326 192 193 191 217 240 197 192 146 128 91 58 200 192 156 135 128 102 59 57 71 64 23 23 3 12 5 356 92 87 59 34 43 42 53 58 65 64 70 66 53 48
224 227 180 257 206 224 210 199 216 222 219 165 171 240 236 197 218 205 262 219 187 156 177 184 134 101 91 85 76 76 85 84 92 82 62 15 6 356 0 357 38 93 94 81 57 63 62 57 58 69 74 68 65 61
239 184 203 217 205 214 216 197 231 236 222 235 229 282 304 293 304 257 203 111 40 298 255 161 155 133 145 126 118 74 37 73 93 121 125 127 261 293 324 8 12 51 73 86 82 68 55 62 55 56 60 57 53 55
216 174 214 209 237 228 231 226 241 247 245 240 210 195 249 269 336 30 34 12 149 173 110 78 57 39 92 108 123 123 102 19 50 50 50 40 12 2 355 356 74 76 74 81 83 80 81 72 67 68 68 67 64 66
192 204 197 227 249 244 225 209 215 223 234 209 222 195 215 147 123 39 346 55 54 60 57 77 88 74 85 89 53 50 77 90 64 49 52 27 4 350 334 57 101 100 96 89 83 81 76 78 79 85 91 86 80 77
205 216 217 232 288 259 237 169 183 243 232 226 251 220 210 151 120 139 49 358 115 129 109 97 94 86 89 93 108 115 104 93 81 62 55 47 38 29 30 67 83 86 93 95 93 97 93 84 79 84 82 80 78 74